Flag for USA

Past Weather in Township of East Fairfield, Pennsylvania, USA — Yesterday and Last 2 Weeks

Now
64 °F

Clear.


Feels Like: 64 °F
Forecast: 78 / 58 °F
Wind: 3 mph from North

Location: New Castle, New Castle Municipal Airport
Current Time: Sep 27, 2020 at 12:42:33 am
Latest Report: Sep 26, 2020 at 11:56 pm
Visibility: 10 mi
Pressure29.98 "Hg
Humidity: 87%
Dew Point: 60 °F
Location of Township of East FairfieldLocation

Past Weather in Township of East Fairfield — Graph

°F

Township of East Fairfield Temperature Yesterday

Maximum temperature yesterday: 77 °F (at 1:56 pm)
Minimum temperature yesterday: 48 °F (at 5:13 am)
Average temperature yesterday: 59 °F

High & Low Weather Summary for the Past Weeks

 TemperatureHumidityPressure
High81 °F (Sep 12, 3:56 pm)100% (Sep 14, 12:30 am)30.63 "Hg (Sep 14, 12:30 am)
Low33 °F (Sep 19, 7:56 am)29% (Sep 20, 3:56 pm)29.98 "Hg (Sep 26, 5:56 pm)
Average57 °F81%30.21 "Hg
* Reported Sep 11 10:56 pm — Sep 26 10:56 pm, Township of East Fairfield. Weather by CustomWeather, © 2020

Note: Actual official high and low records may vary slightly from our data, if they occured in-between our weather recording intervals... More about our weather records

Township of East Fairfield Weather History for the Previous 24 Hours

Scroll right to see more
 ConditionsComfort  
Time TempWeatherWind HumidityBarometerVisibility
10:56 pm
Sat, Sep 26
65 °FClear.No wind85%30.00 "Hg10 mi
9:56 pm66 °FClear.3 mph81%29.99 "Hg10 mi
8:56 pm64 °FClear.3 mph84%30.00 "Hg10 mi
7:56 pm67 °FClear.3 mph79%29.99 "Hg10 mi
6:56 pm71 °FSunny.No wind71%29.98 "Hg10 mi
5:56 pm76 °FSunny.5 mph60%29.98 "Hg10 mi
4:56 pm77 °FSunny.3 mph58%29.99 "Hg10 mi
3:56 pm77 °FOvercast.No wind60%30.00 "Hg10 mi
2:56 pm76 °FPartly sunny.7 mph56%30.01 "Hg10 mi
1:56 pm77 °FPartly sunny.No wind56%30.02 "Hg10 mi
12:56 pm74 °FMostly cloudy.5 mph64%30.04 "Hg10 mi
12:38 pm75 °FPartly sunny.7 mph65%30.01 "Hg10 mi
11:56 am72 °FSunny.6 mph71%30.06 "Hg10 mi
10:56 am68 °FSunny.No wind76%30.08 "Hg10 mi
9:56 am63 °FSunny.3 mph81%30.09 "Hg10 mi
8:56 am55 °FSunny.No wind96%30.10 "Hg9 mi
7:56 am50 °FFog.No wind100%30.10 "Hg2 mi
7:44 am48 °FFog.No wind100%30.05 "Hg2 mi
6:56 am49 °FFog.No wind97%30.08 "Hg2 mi
6:36 am50 °FFog.No wind94%30.04 "Hg1 mi
6:25 am48 °FFog.No wind100%30.04 "Hg3 mi
5:56 am49 °FFog.No wind100%30.06 "Hg4 mi
5:32 am48 °FFog.3 mph100%30.03 "Hg2 mi
5:13 am48 °FFog.No wind100%30.03 "Hg2 mi
4:56 am49 °FFog.No wind100%30.06 "Hg1 mi
4:28 am50 °FFog.No wind100%30.03 "Hg1 mi
3:56 am51 °FFog.No wind100%30.06 "Hg1 mi
3:35 am52 °FFog.3 mph100%30.02 "Hg1 mi
3:07 am52 °FFog.No wind100%30.02 "Hg1 mi
2:56 am51 °FFog.No wind96%30.06 "Hg1 mi
2:38 am52 °FFog.No wind100%30.02 "Hg2 mi
2:24 am52 °FFog.No wind100%30.02 "Hg0 mi
1:59 am52 °FFog.No wind100%30.03 "Hg0 mi
1:30 am54 °FFog.No wind94%30.02 "Hg1 mi
1:11 am54 °FFog.No wind94%30.03 "Hg3 mi
1:04 am54 °FFog.No wind100%30.03 "Hg1 mi
12:38 am54 °FFog.No wind94%30.03 "Hg1 mi
Weather by CustomWeather, © 2020

See weather overview